Wind_Speed
8 7 15 21 20 18 11 5 4 17 17 11 11 12 13 14 16 18 23 26 30 34 37 40 42 43 45 46 47 46 45 43 41 40 39 37 37 37 37 39 40 41 42 43
3 5 9 15 21 15 16 19 24 20 15 9 8 9 11 13 13 14 17 20 26 29 33 35 37 39 40 41 42 44 44 42 41 40 39 38 36 36 35 35 36 37 37 39
3 8 5 1 16 18 12 7 7 5 5 5 4 6 8 9 12 16 16 18 21 24 26 29 32 35 36 37 38 39 40 40 39 39 38 37 37 37 36 35 35 35 35 36
4 5 4 3 9 7 11 10 6 2 2 3 4 7 8 8 8 11 16 18 20 20 23 27 30 33 34 35 36 38 39 39 39 38 38 38 38 38 36 35 35 34 36 37
2 5 2 6 8 4 4 7 8 5 3 3 7 9 10 11 9 8 12 16 20 23 24 24 26 31 33 35 36 36 38 39 39 39 39 40 40 40 38 37 35 35 36 38
2 3 1 7 7 3 4 2 8 6 5 4 3 3 5 9 10 10 11 13 15 18 22 28 30 28 29 32 34 35 36 37 38 39 40 41 42 41 39 38 37 38 39 40
8 3 2 6 6 4 3 4 7 7 6 5 4 3 3 4 6 7 8 9 12 14 17 20 24 29 33 34 33 34 36 37 38 38 39 40 40 40 39 39 38 40 41 43
5 2 1 7 4 5 7 7 8 7 7 6 5 5 6 5 5 5 5 7 9 11 13 16 19 22 26 30 32 34 36 37 38 38 38 39 39 39 39 38 38 39 39 37
5 5 6 8 7 8 9 10 9 9 9 8 8 7 6 7 7 7 7 7 7 9 11 12 15 17 21 24 27 28 32 35 36 38 39 39 40 40 40 41 40 41 41 38
11 5 10 13 8 10 9 9 9 9 10 10 9 9 8 8 8 8 9 9 10 10 11 12 13 15 17 20 24 26 27 29 32 34 36 37 39 39 40 41 42 42 42 42
10 8 12 8 11 10 9 7 8 9 9 9 9 9 9 8 9 9 10 10 10 11 12 13 13 14 15 17 20 22 24 26 30 32 33 34 35 37 38 38 40 41 40 40
12 10 10 10 10 11 11 9 8 7 7 7 8 9 9 9 9 10 10 11 12 12 12 13 14 15 15 16 18 20 22 23 25 28 32 33 33 34 36 38 40 38 38 40
13 10 9 10 11 10 11 11 10 9 9 9 8 9 11 12 12 12 11 12 12 13 14 14 15 15 16 17 18 19 21 23 22 23 26 28 31 32 32 37 36 39 40 40
14 12 10 10 10 11 11 12 12 13 13 12 13 13 12 12 13 14 15 15 14 15 15 15 16 17 16 17 18 19 20 22 23 23 24 25 26 29 31 31 35 37 38 38
14 13 12 11 10 9 9 10 10 11 14 16 17 18 19 18 17 17 18 19 17 17 18 17 17 18 18 17 18 19 19 21 22 23 23 24 24 26 28 29 31 33 36 38
19 15 14 13 13 12 12 13 13 13 14 15 16 18 20 21 20 20 20 21 19 18 20 20 19 20 20 20 19 19 20 20 21 23 23 24 24 24 25 27 28 30 33 34
21 18 17 16 17 18 18 19 20 19 19 19 19 19 20 20 20 20 20 22 21 21 21 20 19 21 21 20 21 20 21 21 21 21 22 23 24 24 25 25 26 27 30 32
22 20 19 18 18 20 21 23 23 24 23 23 23 22 21 21 21 21 21 21 21 21 22 23 21 21 21 22 23 22 22 23 23 22 22 23 23 24 25 26 26 26 27 29
22 21 21 22 21 22 21 22 24 25 25 26 25 24 23 23 22 22 21 21 22 22 21 23 23 23 22 23 23 23 24 24 23 23 23 24 24 24 25 26 27 27 26 26
21 20 20 22 24 25 24 24 26 26 26 26 25 24 24 25 24 23 22 22 22 23 21 22 22 22 22 23 23 23 24 24 24 24 25 24 25 25 25 25 26 26 27 26
23 19 18 19 21 23 25 26 26 25 25 25 25 25 26 24 23 23 23 22 22 24 22 21 20 20 20 20 21 22 23 23 23 25 26 26 26 26 26 26 25 26 25 26
25 20 17 17 17 19 21 22 23 23 24 24 25 25 24 22 22 22 23 23 21 20 20 19 18 17 17 18 19 20 20 21 21 23 25 26 27 27 27 27 26 26 25 25
26 22 18 16 15 15 16 18 20 21 21 21 21 22 22 22 21 21 20 21 21 19 19 19 18 19 19 21 22 22 23 23 23 23 23 24 25 26 27 27 27 26 26 25
25 21 18 17 16 16 15 16 17 18 19 20 20 20 20 19 18 21 21 19 19 20 22 22 22 23 27 26 27 26 26 25 26 26 26 26 25 25 25 25 26 27 26 26
23 20 18 17 17 17 16 16 15 16 17 17 19 20 20 22 22 20 21 22 22 23 25 25 27 28 30 31 31 31 30 28 28 27 27 27 27 26 25 24 24 25 25 26
22 19 17 15 14 15 16 17 16 17 18 17 18 19 20 21 22 22 22 22 22 23 24 26 27 29 29 30 32 33 32 31 30 29 29 28 28 27 26 25 23 23 24 25
20 18 15 15 16 17 18 19 19 18 19 18 16 17 17 16 17 17 18 18 19 20 21 22 23 25 26 27 28 29 31 31 31 30 30 30 28 26 26 26 24 23 23 23
Wind_Direction
55 55 34 34 33 37 63 114 101 135 130 134 166 184 196 199 205 208 210 209 210 211 211 213 217 219 221 223 226 228 230 231 233 235 237 241 245 247 247 246 246 246 246 249
308 282 330 8 39 53 79 90 115 143 129 146 170 184 199 209 211 214 215 217 217 215 215 216 215 216 218 221 224 227 229 229 229 231 235 240 243 243 244 245 247 247 246 247
287 326 314 322 20 33 54 91 109 137 129 148 190 197 199 202 207 220 223 220 222 223 223 221 220 217 216 218 220 222 224 226 228 231 235 237 239 242 243 244 245 248 251 252
295 328 30 357 357 10 26 39 63 91 235 241 215 221 218 211 216 216 218 221 225 225 226 227 227 226 224 220 220 223 225 226 229 231 234 237 241 243 244 245 248 253 257 257
356 60 106 2 347 353 7 14 21 29 18 309 271 245 231 236 238 233 226 221 221 225 231 231 228 229 229 229 228 225 227 229 232 234 236 239 242 243 244 245 247 250 253 255
63 92 17 352 342 336 325 316 3 8 16 3 320 269 237 244 243 245 241 233 227 222 222 229 235 235 233 230 231 232 231 232 234 236 238 240 241 241 243 245 247 248 250 253
49 79 73 10 13 340 347 319 333 343 350 343 330 309 275 255 250 247 249 239 238 234 231 230 231 233 237 238 235 237 237 236 236 238 238 238 240 242 244 245 245 247 250 251
5 11 320 342 341 347 324 316 312 315 313 313 308 302 304 297 278 270 254 250 249 244 241 239 235 236 235 233 233 234 237 239 237 238 240 239 239 242 245 247 249 252 250 247
342 296 309 326 298 304 312 311 312 311 307 306 304 298 290 282 283 277 273 265 258 256 256 247 246 244 244 243 239 234 234 235 238 238 239 240 240 240 243 245 246 248 248 248
333 319 297 309 289 297 298 296 296 295 294 297 298 297 297 295 290 284 280 271 265 261 259 258 252 247 245 246 248 246 241 241 240 239 239 240 240 240 240 241 242 242 244 247
332 317 313 315 311 310 305 298 291 290 286 287 289 289 291 294 293 293 291 287 278 270 265 261 258 256 253 249 247 248 247 245 244 242 242 243 243 242 240 240 241 242 242 241
323 328 325 323 318 315 312 310 301 293 291 284 287 292 293 292 290 290 291 290 288 284 279 272 265 260 256 254 253 251 250 246 245 245 245 245 244 247 243 243 243 243 243 243
319 319 322 326 325 320 316 315 311 305 298 294 289 285 286 287 286 286 284 282 283 283 284 282 278 272 265 260 257 254 255 255 250 245 245 246 246 243 248 247 244 246 245 245
310 308 311 319 327 325 314 308 305 303 299 296 293 291 283 279 283 284 284 283 283 282 279 277 277 275 271 268 264 260 259 257 256 254 249 247 246 247 243 244 250 246 245 247
322 304 300 304 316 328 337 343 339 321 309 303 297 291 288 285 284 282 284 284 282 282 281 278 277 275 273 270 268 266 262 261 260 259 257 252 249 248 247 243 242 246 251 248
328 315 296 290 293 302 311 317 324 329 330 328 318 305 297 292 288 287 287 285 283 281 280 279 276 273 272 271 270 269 267 263 260 260 260 258 257 253 251 249 245 244 245 246
307 313 302 291 283 286 294 300 304 305 308 311 312 314 307 297 293 288 284 284 285 284 281 277 273 274 275 273 271 270 269 269 266 264 261 261 260 259 258 255 252 249 247 246
299 290 293 292 287 283 285 290 294 295 298 299 301 303 304 302 293 289 288 286 284 282 281 279 278 274 275 274 273 271 269 268 268 266 266 265 263 261 260 258 256 253 254 252
306 288 277 279 285 286 287 287 288 291 293 294 296 296 297 300 294 288 286 286 285 282 278 278 276 275 273 271 271 269 269 268 267 266 264 264 264 264 262 260 259 256 253 255
321 305 286 276 275 279 282 285 288 290 292 293 294 294 294 297 294 288 286 288 287 282 280 276 274 272 270 269 269 268 267 268 269 269 267 264 264 264 264 263 261 259 258 255
329 317 301 288 279 278 280 283 287 289 290 293 293 293 294 293 289 287 287 288 285 284 281 276 272 269 268 267 267 266 267 267 266 267 268 268 266 264 263 263 264 263 259 256
333 325 315 305 297 291 288 287 288 290 291 292 293 294 293 292 290 288 288 286 282 279 275 273 272 271 269 268 268 268 268 267 265 264 264 265 265 265 265 265 264 264 264 261
334 330 326 322 315 307 301 298 298 298 299 298 297 295 294 294 293 291 285 284 283 275 269 268 269 271 272 270 272 274 274 273 272 269 266 264 265 264 263 263 263 262 263 263
334 332 329 327 325 322 317 312 310 306 304 302 302 300 300 298 297 293 293 290 278 272 271 273 271 271 271 274 277 278 277 273 269 268 267 266 265 265 262 260 260 260 259 260
333 333 330 328 328 325 323 323 320 315 311 310 307 304 305 302 298 292 289 288 285 282 278 277 276 275 276 278 277 277 275 272 269 267 265 264 264 265 265 264 261 258 256 255
331 333 331 332 333 331 327 325 324 319 315 313 309 307 304 302 302 301 299 297 293 289 286 283 280 277 276 274 273 273 273 272 270 268 267 264 262 260 262 263 262 260 256 253
330 331 334 334 335 333 330 327 327 325 324 326 325 321 319 316 313 311 309 306 303 300 297 293 290 286 283 279 276 273 271 269 267 266 263 263 263 259 257 258 260 259 258 254
Height
2984 2983 2982 2978 2973 2968 2962 2964 2965 2972 2973 2975 2976 2978 2981 2984 2988 2990 2994 2998 3002 3007 3012 3017 3023 3028 3034 3040 3046 3053 3059 3065 3070 3075 3079 3083 3087 3091 3094 3098 3101 3105 3108 3111
2985 2983 2982 2980 2978 2975 2972 2971 2970 2973 2974 2976 2977 2979 2981 2983 2986 2989 2992 2996 2999 3002 3007 3011 3016 3021 3027 3033 3038 3045 3051 3056 3061 3066 3071 3075 3078 3081 3085 3088 3091 3094 3098 3101
2984 2983 2982 2983 2980 2981 2980 2979 2978 2978 2979 2979 2979 2980 2981 2982 2984 2987 2990 2993 2996 2999 3002 3006 3011 3015 3020 3025 3031 3036 3041 3047 3052 3056 3060 3064 3069 3072 3076 3079 3081 3084 3087 3091
2984 2982 2986 2986 2983 2981 2981 2980 2980 2978 2978 2978 2980 2982 2982 2982 2983 2985 2987 2990 2993 2995 2998 3001 3005 3009 3013 3017 3022 3028 3032 3037 3041 3046 3050 3054 3058 3062 3066 3069 3072 3075 3077 3080
2984 2984 2986 2984 2984 2983 2981 2980 2977 2975 2977 2978 2978 2979 2980 2981 2982 2982 2984 2986 2987 2990 2994 2997 3000 3003 3006 3010 3014 3019 3023 3028 3032 3036 3040 3044 3048 3052 3055 3059 3063 3066 3068 3070
2985 2985 2986 2986 2983 2982 2982 2982 2981 2980 2979 2978 2977 2978 2979 2979 2978 2981 2982 2982 2983 2984 2987 2991 2994 2996 3000 3002 3006 3010 3014 3018 3022 3026 3030 3034 3038 3041 3045 3049 3052 3056 3058 3061
2986 2986 2987 2985 2984 2982 2983 2987 2980 2979 2978 2978 2978 2978 2978 2978 2978 2978 2978 2978 2979 2980 2982 2984 2987 2989 2992 2995 2997 3001 3005 3008 3012 3016 3020 3024 3027 3031 3034 3038 3042 3045 3048 3050
2988 2988 2989 2986 2984 2984 2984 2981 2980 2979 2979 2978 2977 2976 2975 2975 2976 2975 2975 2975 2976 2976 2977 2979 2980 2983 2985 2987 2989 2991 2996 2999 3002 3006 3010 3013 3017 3020 3023 3027 3031 3033 3036 3039
2992 2989 2987 2985 2984 2983 2981 2980 2979 2977 2977 2976 2975 2974 2974 2973 2972 2973 2972 2973 2973 2974 2974 2974 2975 2976 2978 2980 2982 2982 2985 2989 2993 2996 2999 3003 3007 3010 3013 3016 3020 3022 3025 3029
2989 2986 2984 2983 2981 2980 2979 2977 2976 2975 2974 2973 2972 2972 2971 2970 2970 2969 2969 2969 2970 2970 2971 2972 2971 2972 2972 2973 2975 2976 2976 2980 2983 2986 2988 2992 2996 2999 3002 3005 3008 3012 3015 3018
2986 2984 2982 2980 2978 2977 2976 2975 2974 2973 2972 2971 2970 2969 2968 2967 2967 2966 2965 2964 2965 2965 2967 2967 2967 2967 2967 2968 2969 2970 2971 2972 2974 2976 2980 2981 2984 2988 2991 2993 2996 3000 3004 3007
2984 2982 2979 2978 2975 2974 2973 2972 2971 2970 2969 2969 2968 2967 2966 2965 2964 2964 2963 2963 2962 2961 2961 2961 2961 2962 2962 2963 2964 2964 2966 2966 2966 2967 2969 2972 2974 2977 2979 2983 2985 2988 2991 2995
2981 2979 2977 2975 2973 2971 2970 2969 2968 2967 2966 2965 2965 2964 2963 2963 2962 2961 2960 2959 2958 2957 2957 2956 2955 2955 2956 2956 2957 2958 2959 2960 2958 2959 2961 2962 2965 2967 2969 2972 2974 2976 2979 2984
2977 2976 2974 2972 2971 2969 2967 2965 2964 2963 2962 2962 2961 2960 2960 2959 2957 2956 2955 2954 2953 2952 2951 2951 2950 2949 2949 2949 2949 2949 2951 2953 2953 2952 2953 2954 2955 2957 2960 2962 2963 2965 2969 2972
2973 2972 2970 2969 2967 2966 2964 2963 2961 2959 2957 2956 2955 2954 2953 2953 2952 2951 2950 2948 2948 2947 2945 2945 2945 2943 2943 2943 2943 2943 2942 2943 2944 2945 2945 2945 2948 2950 2951 2951 2953 2955 2957 2960
2970 2967 2965 2964 2963 2962 2961 2959 2958 2956 2954 2952 2950 2948 2946 2945 2944 2944 2943 2941 2941 2941 2939 2938 2937 2936 2936 2935 2935 2934 2935 2935 2936 2937 2937 2938 2940 2940 2941 2942 2943 2946 2949 2949
2965 2963 2960 2958 2957 2956 2955 2954 2952 2951 2950 2948 2946 2943 2940 2938 2937 2935 2934 2933 2932 2932 2931 2930 2931 2929 2928 2928 2928 2928 2928 2928 2928 2928 2929 2929 2929 2930 2933 2933 2935 2936 2938 2939
2957 2956 2954 2952 2951 2950 2949 2947 2945 2944 2942 2941 2939 2937 2934 2931 2929 2928 2926 2925 2924 2923 2922 2920 2920 2920 2919 2918 2918 2919 2919 2920 2920 2920 2919 2920 2922 2923 2924 2925 2926 2928 2928 2928
2948 2946 2946 2945 2944 2942 2941 2940 2938 2936 2934 2932 2930 2928 2926 2924 2921 2920 2918 2917 2916 2915 2914 2912 2911 2911 2911 2911 2911 2911 2911 2911 2911 2912 2912 2913 2914 2914 2915 2916 2918 2918 2919 2919
2941 2938 2936 2936 2935 2933 2932 2931 2929 2927 2925 2923 2921 2919 2918 2915 2913 2911 2910 2909 2907 2906 2906 2905 2904 2904 2903 2903 2903 2903 2903 2903 2903 2903 2903 2904 2905 2905 2906 2908 2908 2908 2909 2909
2935 2932 2929 2927 2926 2925 2923 2922 2920 2919 2917 2914 2912 2911 2909 2907 2905 2903 2901 2900 2898 2897 2896 2896 2896 2896 2895 2895 2895 2895 2895 2895 2895 2894 2894 2895 2896 2897 2898 2898 2898 2898 2898 2899
2929 2926 2923 2920 2918 2917 2915 2913 2911 2910 2908 2906 2904 2902 2900 2898 2897 2895 2893 2892 2891 2889 2888 2888 2888 2888 2888 2888 2887 2887 2887 2887 2887 2887 2887 2887 2887 2887 2887 2887 2888 2888 2889 2889
2924 2920 2917 2914 2912 2910 2908 2906 2904 2902 2900 2898 2896 2894 2892 2890 2889 2887 2886 2884 2883 2882 2882 2882 2882 2881 2880 2879 2879 2879 2879 2879 2879 2879 2879 2879 2879 2878 2878 2878 2878 2879 2879 2880
2920 2916 2913 2910 2907 2905 2903 2901 2899 2896 2894 2892 2889 2887 2885 2884 2882 2879 2877 2877 2876 2875 2874 2874 2873 2873 2870 2871 2870 2870 2870 2870 2869 2869 2869 2869 2869 2869 2870 2870 2869 2869 2870 2871
2915 2912 2909 2905 2903 2900 2898 2896 2893 2891 2889 2886 2883 2881 2879 2876 2874 2873 2871 2869 2868 2867 2865 2865 2864 2862 2861 2860 2859 2859 2858 2858 2858 2858 2858 2858 2859 2859 2859 2860 2860 2861 2861 2862
2911 2908 2905 2902 2899 2896 2894 2891 2889 2886 2884 2881 2878 2875 2872 2869 2867 2864 2862 2860 2859 2857 2856 2854 2853 2851 2850 2849 2848 2847 2846 2846 2847 2847 2847 2847 2848 2849 2849 2850 2851 2851 2852 2853
2907 2904 2901 2898 2895 2892 2889 2886 2883 2881 2878 2875 2873 2870 2867 2864 2861 2859 2856 2854 2851 2849 2847 2845 2842 2840 2839 2837 2836 2835 2834 2834 2834 2835 2835 2836 2837 2839 2839 2840 2841 2842 2843 2844